Regional Weather Roundup
Issued by NWS Burlington, VT

Home | Current Version | Previous Version | Text Only | Print | Product List | Glossary On
Versions: 1 2 3 4 5 6 7 8 9 10 11 12 13 14 15 16 17 18 19 20 21 22 23 24 25 26 27 28 29 30 31 32 33 34 35 36 37 38 39 40 41 42 43 44 45 46 47 48 49 50
000
ASUS41 KBTV 182130
RWRBTV
VERMONT REGIONAL WEATHER ROUNDUP
NATIONAL WEATHER SERVICE BURLINGTON VT
500 PM EDT FRI APR 18 2014

NOTE: "FAIR" INDICATES FEW OR NO CLOUDS BELOW 12,000 FEET WITH NO
SIGNIFICANT WEATHER AND/OR OBSTRUCTIONS TO VISIBILITY.

* THESE REPORTS ARE NOT UNDER NWS QUALITY CONTROL AND/OR DO NOT
  REPORT WEATHER SUCH AS PRECIPITATION AND FOG.

VTZ001>019-182200-
_____VERMONT_____


CITY           SKY/WX    TMP DP  RH WIND       PRES   REMARKS
BURLINGTON     MOCLDY    52  16  24 S12       30.23F
MONTPELIER     FAIR      47  19  33 S13       30.30F
MORRISVILLE    FAIR      49  18  29 S8        30.26F
ST. JOHNSBURY*   N/A     49  20  31 MISG      30.26F
LYNDONVILLE*   FAIR      47  17  29 S9        30.27F
MIDDLEBURY*    FAIR      52  20  28 S6        30.23F
RUTLAND*       FAIR      48  21  34 SE12      30.25F
SPRINGFIELD    FAIR      48  23  37 SE9       30.31F
HIGHGATE*      FAIR      56  12  17 S12G21    30.20F
NEWPORT*       FAIR      50  12  22 S9        30.22F
BENNINGTON     FAIR      50  18  28 S12       30.27F
SUTTON*          N/A     45 N/A N/A MISG        N/A
MT. MANSFIELD*   N/A     34 N/A N/A SE10        N/A

_____LAKE CHAMPLAIN_____


CITY           SKY/WX    TMP DP  RH WIND       PRES   REMARKS
BURTON ISLAND*   N/A     48  21  34 S20G25      N/A
COLCHESTER RF*   N/A     45  25  45 S21         N/A
DIAMOND ISL*     N/A     50  19  29 S15         N/A

$$

NYZ007-026>031-035-052-083-182200-
_____NORTHERN NEW YORK_____


CITY           SKY/WX    TMP DP  RH WIND       PRES   REMARKS
PLATTSBURGH    FAIR      53  18  25 SE14      30.20F
SARANAC LAKE   FAIR      52  20  28 SW16      30.17F
MASSENA        MOCLDY    53  30  41 E7        30.19F
OGDENSBURG*    CLEAR     57  34  41 W9        30.18S
POTSDAM*       CLOUDY    55  32  41 W9        30.17F
WATERTOWN      CLOUDY    56  30  37 W10       30.19F
FT DRUM        FAIR      57  33  40 SW10      30.18F
ALBANY         MOCLDY    50  23  34 S15       30.30F
GLENS FALLS    FAIR      53  24  32 SW8       30.28F

$$
NHZ002-005-011-182200-
_____NEW HAMPSHIRE_____


CITY           SKY/WX    TMP DP  RH WIND       PRES   REMARKS
LEBANON        FAIR      50  21  32 S6        30.30F
KEENE          FAIR      46  25  42 S6        30.33F
MT WASHINGTON  CLOUDY    28   1  31 W32         N/A  WCI  12
PLYMOUTH         N/A     47  23  38 CALM      30.30F
WHITEFIELD     FAIR      50  15  24 SW8       30.27S

$$

_____REGIONAL QUEBEC LOCATIONS_____


CITY           SKY/WX    TMP DP  RH WIND       PRES   REMARKS
MONTREAL       CLOUDY    50  21  32 SE7       30.20F
QUEBEC CITY    CLOUDY    46  19  34 N6        30.25F
SHERBROOKE     CLEAR     52  16  24 W9        30.23F

_____REGIONAL ONTARIO LOCATIONS_____


CITY           SKY/WX    TMP DP  RH WIND       PRES   REMARKS
OTTAWA         LGT RAIN  50  32  50 W9        30.21S

______KEY______
VSB  - VISIBILITY IN MILES
WCI  - WIND CHILL INDEX
HX   - HEAT INDEX
$$



USA.gov is the U.S. government's official web portal to all federal, state and local government web resources and services.